User: anonymous
Location: Caltech
(34.1382°N, 118.1253°W)
Time: 00:47:53
(UTC-07:00)
Language:

SL-16 R/B - Orbit

View from above orbital plane
View from above orbital plane
View from above satellite
View from above satellite

Ground track
Ground track

The orbit data is extracted from the following two-line orbital elements,

1 28353U 04021B   14211.84088378 -.00000293  00000-0 -12898-3 0  8078
2 28353 071.0013 125.2493 0005947 333.5376 082.0740 14.14082962523396
Epoch (UTC): 30 July 2014 20:10:52
Eccentricity: 0.0005947
inclination: 71.0013°
perigee height: 841 km
apogee height: 850 km
right ascension of ascending node: 125.2493°
argument of perigee: 333.5376°
revolutions per day: 14.14082962
mean anomaly at epoch: 82.0740°
orbit number at epoch: 52339

The dashed part of the orbit path shows where the satellite is in the earth's shadow,  

DLR